LogID,LogEntryDate,LogEntryTime,LogEntrySeconds,LogNotes,AFR,STFT,CurrentLTFT,CruiseLTFT,IdleLTFT,IPW,O2Sensor2,Load,AFRMAP,LoadTiming,TimingAdv,KnockSum,RPM,IDC,Baro,MAP,Boost,OmniMAP,OmniBoost,WGDC_Active,MAF,InVVTtarget,ExVVTtarget,InVVTactual,ExVVTactual,TPS,APP,IAT,WGDCCorr,Speed,Battery,ECT,MAT,MAPCalcs,IMAPCalcs,MAFCalcs,ChosenCalc,EthanolPercent,Custom
1,2019-06-07,16:22:58.58894,0.2423,,0,0,-6.8359375,-8.203125,-6.8359375,0,0,10.9375,14.7,10.9375,-10,0,2703.125,0,14.21369852,3.859476,-10.35422252,4.686,-9.52769852,0,1.4706,10.625,0,10.625,0.3125,14.5098039215686,9.61176470588235,86,0,29.832,14.07936,183.2,96.8,14.0625,0,10.9375,10.9375,78.8235294117647,
2,2019-06-07,16:22:58.60455,0.25519,,0,0,-6.8359375,-8.203125,-6.8359375,0,0,10.9375,14.7,10.9375,-10,0,2703.125,0,14.21369852,3.859476,-10.35422252,4.686,-9.52769852,0,1.4706,10.625,0,10.625,0.3125,14.5098039215686,9.61176470588235,86,0,29.832,14.07936,183.2,96.8,14.0625,0,10.9375,10.9375,78.4313725490196,
3,2019-06-07,16:22:58.63564,0.287,,0,0,-6.8359375,-8.203125,-6.8359375,0,0,10.9375,14.7,10.9375,-10,0,2695.3125,0,14.28621739,3.7629891,-10.52322829,4.56885,-9.71736739,0,1.509816,10.625,0,10.625,0.3125,14.5098039215686,9.61176470588235,86,0,29.832,14.07936,183.2,96.8,14.0625,0,10.9375,10.9375,78.8235294117647,
4,2019-06-07,16:22:58.65130,0.30542,,0,0,-6.8359375,-8.203125,-6.8359375,0,0,10.9375,14.7,10.9375,-10,0,2695.3125,0,14.28621739,3.7629891,-10.52322829,4.56885,-9.71736739,0,1.509816,10.625,0,10.46875,0.3125,14.5098039215686,9.61176470588235,86,0,29.832,14.07936,183.2,96.8,14.0625,0,10.9375,10.9375,78.8235294117647,
5,2019-06-07,16:22:58.66688,0.33204,,0,0,-6.8359375,-8.203125,-6.8359375,0,0,10.9375,14.7,10.9375,-10,0,2695.3125,0,14.21369852,3.859476,-10.35422252,4.686,-9.52769852,0,1.509816,10.625,0,10.46875,0.3125,14.5098039215686,9.61176470588235,86,0,29.832,14.07936,183.2,96.8,14.0625,0,10.9375,10.9375,78.4313725490196,
6,2019-06-07,16:22:58.69822,0.35516,,0,0,-6.8359375,-8.203125,-6.8359375,0,0,10.9375,14.7,10.9375,-10,0,2687.5,0,14.21369852,3.859476,-10.35422252,4.686,-9.52769852,0,1.509816,10.625,0,10.625,0.3125,14.5098039215686,9.61176470588235,86,0,29.832,14.22602,183.2,96.8,14.0625,0,10.9375,10.9375,78.4313725490196,
7,2019-06-07,16:22:58.71384,0.37973,,0,0,-6.8359375,-8.203125,-6.8359375,0,0,10.9375,14.7,10.9375,-10,0,2687.5,0,14.28621739,3.7629891,-10.52322829,4.56885,-9.71736739,0,1.509816,10.625,0,10.625,0.3125,14.5098039215686,9.61176470588235,86,0,29.832,14.22602,183.2,96.8,14.0625,0,10.9375,10.9375,78.8235294117647,
8,2019-06-07,16:22:58.74499,0.40707,,0,0,-6.8359375,-8.203125,-6.8359375,1.4,0,10.9375,14.7,10.9375,-10,0,2679.6875,3.12630208333333,14.28621739,3.7629891,-10.52322829,4.56885,-9.71736739,0,1.509816,10.625,0,10.625,0.46875,15.6862745098039,20.2352941176471,86,0,29.832,14.22602,183.2,96.8,14.0625,0,12.5,10.9375,78.8235294117647,
9,2019-06-07,16:22:58.79185,0.44559,,0,0,-6.8359375,-8.203125,-6.8359375,1.3,0,10.9375,14.7,12.5,-8,0,2679.6875,2.90299479166667,14.28621739,4.2454236,-10.04079379,5.1546,-9.13161739,0,1.76472,10.625,0,10.625,0.46875,15.6862745098039,20.2352941176471,86,0,29.832,14.15269,183.2,96.8,14.0625,0,25,14.0625,78.4313725490196,
10,2019-06-07,16:22:58.82310,0.48339,,0,0,-6.8359375,-8.203125,-6.8359375,1.6,0,15.625,14.7,17.1875,2,0,2695.3125,3.59375,14.28621739,4.2454236,-10.04079379,5.1546,-9.13161739,0,1.76472,14.375,-4.375,10.625,0.3125,15.6862745098039,20.2352941176471,86,0,29.832,14.15269,183.2,96.8,23.4375,0,121.875,23.4375,78.4313725490196,
11,2019-06-07,16:22:58.86996,0.52679,,0,0,-6.8359375,-8.203125,-6.8359375,3.3,0,23.4375,14.7,35.9375,42,0,2710.9375,7.455078125,14.28621739,13.508166,-0.77805139,16.401,2.11478261,0,2.509824,14.375,-4.375,10.625,0.3125,63.921568627451,100.164705882353,86,0,29.832,14.15269,183.2,96.8,71.875,0,104.6875,64.0625,78.4313725490196,
12,2019-06-07,16:22:58.90123,0.5642,,0,0,-6.8359375,-8.203125,-6.8359375,3.5,0,64.0625,14.7,64.0625,34,0,2750,8.02083333333333,14.28621739,13.508166,-0.77805139,16.401,2.11478261,0,2.509824,26.25,-7.5,13.28125,0,63.921568627451,100.164705882353,86,0,29.832,14.15269,183.2,96.8,87.5,0,67.1875,64.0625,78.4313725490196,
13,2019-06-07,16:22:58.94807,0.60945,,0,0,-8.203125,-8.203125,-6.8359375,3.5,0,65.625,14.7,65.625,27,0,2960.9375,8.63606770833333,14.28621739,14.2800612,-0.00615618999999867,17.3382,3.05198261,7.5,2.568648,26.25,-7.5,13.28125,0,63.921568627451,100.164705882353,86,0,29.832,14.15269,183.2,96.8,87.5,0,87.5,70.3125,78.4313725490196,
14,2019-06-07,16:22:58.99501,0.6464,,0,0,-8.203125,-8.203125,-6.8359375,3.7,0,71.875,14.7,71.875,30,0,2687.5,8.28645833333333,14.28621739,14.2800612,-0.00615618999999867,17.3382,3.05198261,7.5,2.568648,21.875,0,29.84375,-1.875,86.2745098039216,100.670588235294,86,0,29.832,14.15269,183.2,96.8,89.0625,0,78.125,75,78.4313725490196,
15,2019-06-07,16:22:59.02617,0.69149,,49.7889,0,-8.203125,-8.203125,-6.8359375,3.8,0,75,14.7,75,29,0,2539.0625,8.04036458333333,14.28621739,14.3765481,0.0903307100000017,17.45535,3.16913261,7.5,2.568648,21.875,0,29.84375,-1.875,86.2745098039216,100.670588235294,86,0,29.832,14.22602,183.2,96.8,89.0625,0,75,73.4375,78.4313725490196,
16,2019-06-07,16:22:59.07318,0.72377,,49.7889,0,-8.203125,-8.203125,-6.8359375,3.8,0,73.4375,14.7,73.4375,16,0,2671.875,8.4609375,14.28621739,14.3765481,0.0903307100000017,17.45535,3.16913261,7.5,2.568648,24.375,-1.875,27.1875,-0.15625,86.2745098039216,100.670588235294,86,0,29.832,14.22602,183.2,96.8,89.0625,0,70.3125,75,78.4313725490196,
17,2019-06-07,16:22:59.10428,0.7639,,49.7889,0,-8.203125,-8.203125,-6.8359375,3.8,0,75,14.7,75,15,0,2875,9.10416666666667,14.28621739,14.473035,0.18681761,17.5725,3.28628261,7.5,1.980408,24.375,-1.875,27.1875,-0.15625,87.4509803921569,101.682352941176,86,0,29.832,14.22602,183.2,96.8,89.0625,0,89.0625,76.5625,78.4313725490196,
18,2019-06-07,16:22:59.13552,0.79854,,49.7889,0,-8.203125,-8.203125,-6.8359375,3.8,0,76.5625,14.7,78.125,28,0,2851.5625,9.02994791666667,14.28621739,14.473035,0.18681761,17.5725,3.28628261,7.5,1.980408,20.625,0,26.71875,0,87.4509803921569,101.682352941176,86,0,29.832,14.15269,183.2,96.8,90.625,0,82.8125,78.125,78.4313725490196,
19,2019-06-07,16:22:59.18238,0.83938,,49.7889,0,-8.203125,-8.203125,-6.8359375,3.8,0,79.6875,14.7,79.6875,27,0,2718.75,8.609375,14.28621739,14.5695219,0.283304510000001,17.68965,3.40343261,7.5,2.117664,20.625,0,26.71875,0,87.4509803921569,101.682352941176,86,0,29.832,14.15269,183.2,96.8,89.0625,39.0625,75,79.6875,78.8235294117647,
20,2019-06-07,16:22:59.21363,0.86933,,12.6273,0,-8.203125,-8.203125,-6.8359375,3.8,0,79.6875,14.7,79.6875,26,0,2703.125,8.55989583333333,14.28621739,14.5695219,0.283304510000001,17.68965,3.40343261,7.5,2.117664,20,-0.625,25.15625,0,87.0588235294118,101.682352941176,86,0,29.832,14.15269,183.2,96.8,87.5,68.75,79.6875,79.6875,78.4313725490196,
21,2019-06-07,16:22:59.24500,0.90128,,12.6273,0,-8.203125,-8.203125,-6.8359375,3.8,0,79.6875,14.7,79.6875,17,0,2804.6875,8.88151041666667,14.28621739,14.6660088,0.379791410000001,17.8068,3.52058261,7.5,2.05884,20,-0.625,25.15625,0,87.0588235294118,101.682352941176,86,0,31.075,14.07936,183.2,96.8,87.5,78.125,73.4375,79.6875,78.4313725490196,
22,2019-06-07,16:22:59.27612,0.93285,,12.6273,0,-8.203125,-8.203125,-6.8359375,3.7,0,79.6875,14.7,79.6875,28,0,2859.375,8.81640625,14.28621739,14.6660088,0.379791410000001,17.8068,3.52058261,7.5,2.05884,21.875,-2.5,24.0625,0.15625,87.0588235294118,101.682352941176,86,0,31.075,14.07936,183.2,96.8,87.5,78.125,81.25,79.6875,78.4313725490196,
23,2019-06-07,16:22:59.32304,0.97522,,12.6273,0,-8.203125,-8.203125,-6.8359375,3.8,0,79.6875,14.7,81.25,27,0,2851.5625,9.02994791666667,14.28621739,14.7624957,0.476278310000001,17.92395,3.63773261,7.5,2.686296,21.875,-2.5,24.0625,0.15625,87.0588235294118,101.682352941176,86,0,31.075,14.07936,183.2,96.8,87.5,79.6875,82.8125,81.25,78.8235294117647,
24,2019-06-07,16:22:59.35422,1.00889,,12.2745,0,-8.203125,-8.203125,-6.8359375,3.8,0,81.25,14.7,81.25,26,0,2789.0625,8.83203125,14.28621739,14.7624957,0.476278310000001,17.92395,3.63773261,7.5,2.686296,19.375,-0.625,22.96875,0.15625,87.0588235294118,101.682352941176,86,0,31.075,14.15269,183.2,96.8,89.0625,79.6875,73.4375,81.25,78.8235294117647,
25,2019-06-07,16:22:59.38547,1.03968,,12.2745,0,-8.203125,-8.203125,-6.8359375,3.7,0,81.25,14.7,81.25,26,0,2789.0625,8.599609375,14.28621739,14.8589826,0.57276521,18.0411,3.75488261,7.5,1.803936,19.375,-0.625,22.96875,0.15625,87.0588235294118,101.682352941176,86,0,31.075,14.15269,183.2,96.8,89.0625,79.6875,82.8125,81.25,78.4313725490196,
26,2019-06-07,16:22:59.41680,1.0709,,12.2745,0,-8.203125,-8.203125,-6.8359375,3.8,0,81.25,14.7,81.25,27,0,2843.75,9.00520833333333,14.28621739,14.8589826,0.57276521,18.0411,3.75488261,7.5,1.803936,21.25,-2.5,22.1875,0.15625,87.0588235294118,101.682352941176,86,0,31.075,14.15269,183.2,96.8,89.0625,79.6875,79.6875,81.25,78.4313725490196,
27,2019-06-07,16:22:59.44795,1.10799,,12.2745,0,-8.203125,-8.203125,-6.8359375,3.7,0,81.25,14.7,81.25,27,0,2882.8125,8.888671875,14.28621739,14.9554695,0.66925211,18.15825,3.87203261,7.5,2.686296,21.25,-2.5,22.1875,0.15625,87.0588235294118,101.682352941176,86,0,31.075,14.07936,183.2,96.8,89.0625,81.25,81.25,81.25,78.4313725490196,
28,2019-06-07,16:22:59.47919,1.13229,,12.2745,0,-8.203125,-8.203125,-6.8359375,3.7,0,81.25,14.7,81.25,27,0,2890.625,8.91276041666667,14.28621739,14.9554695,0.66925211,18.15825,3.87203261,7.5,2.686296,21.25,-2.5,21.40625,0.15625,87.0588235294118,101.682352941176,86,0,31.075,14.07936,183.2,96.8,90.625,81.25,85.9375,81.25,78.4313725490196,
29,2019-06-07,16:22:59.51044,1.16321,,11.9511,0,-8.203125,-8.203125,-6.8359375,3.7,0,81.25,14.7,81.25,27,0,2867.1875,8.84049479166667,14.28621739,14.9554695,0.66925211,18.15825,3.87203261,7.5,2.64708,21.25,-2.5,21.40625,0.15625,87.0588235294118,101.682352941176,86,0,31.075,14.07936,183.2,96.8,90.625,81.25,87.5,81.25,78.4313725490196,
30,2019-06-07,16:22:59.52606,1.18806,,11.9511,0,-8.203125,-8.203125,-6.8359375,3.7,0,81.25,14.7,81.25,27,0,2851.5625,8.79231770833333,14.28621739,14.9554695,0.66925211,18.15825,3.87203261,7.5,2.64708,20.625,-2.5,21.40625,-0.15625,87.0588235294118,101.682352941176,86,0,31.075,14.15269,183.2,96.8,90.625,81.25,79.6875,81.25,78.4313725490196,
31,2019-06-07,16:22:59.55730,1.22289,,11.9511,0,-8.203125,-8.203125,-6.8359375,3.8,0,81.25,14.7,81.25,27,0,2875,9.10416666666667,14.28621739,15.0519564,0.765739010000001,18.2754,3.98918261,7.5,1.941192,20.625,-2.5,21.40625,-0.15625,87.0588235294118,101.682352941176,86,0,31.075,14.15269,183.2,96.8,90.625,81.25,85.9375,81.25,78.4313725490196,
32,2019-06-07,16:22:59.58854,1.25184,,11.9511,0,-8.203125,-8.203125,-6.8359375,3.8,0,81.25,14.5860465116279,81.25,27,0,2906.25,9.203125,14.28621739,15.0519564,0.765739010000001,18.2754,3.98918261,7.5,1.941192,22.5,-3.75,21.40625,-0.625,87.0588235294118,101.682352941176,86,0,31.075,14.15269,183.2,96.8,90.625,81.25,76.5625,81.25,78.4313725490196,
33,2019-06-07,16:22:59.63540,1.28827,,11.9511,0,-8.203125,-8.203125,-6.8359375,3.7,0,81.25,14.5860465116279,81.25,27,0,2937.5,9.05729166666667,14.28621739,15.1484433,0.862225910000001,18.39255,4.10633261,7.5,1.941192,22.5,-3.75,21.40625,-0.625,87.0588235294118,101.682352941176,86,0,31.075,14.07936,183.2,96.8,92.1875,82.8125,79.6875,82.8125,78.4313725490196,
34,2019-06-07,16:22:59.66675,1.3204,,11.9511,0,-8.203125,-8.203125,-6.8359375,3.7,0,82.8125,14.5860465116279,82.8125,26,0,2921.875,9.00911458333333,14.28621739,15.1484433,0.862225910000001,18.39255,4.10633261,7.5,1.941192,21.875,-3.125,21.71875,-2.1875,87.0588235294118,101.682352941176,86,0,31.075,14.07936,183.2,96.8,92.1875,82.8125,82.8125,82.8125,78.4313725490196,
35,2019-06-07,16:22:59.69789,1.3542,,11.9511,0,-8.203125,-8.203125,-6.8359375,3.8,0,82.8125,14.5860465116279,82.8125,26,0,2914.0625,9.22786458333333,14.28621739,15.3414171,1.05519971,18.62685,4.34063261,7.5,2.470608,21.875,-3.125,21.71875,-2.1875,87.0588235294118,101.176470588235,86,0,31.075,14.07936,183.2,96.8,92.1875,82.8125,79.6875,82.8125,78.4313725490196,
36,2019-06-07,16:22:59.72913,1.38977,,11.9511,0,-8.203125,-8.203125,-6.8359375,3.7,0,82.8125,14.5860465116279,84.375,26,0,2937.5,9.05729166666667,14.28621739,15.3414171,1.05519971,18.62685,4.34063261,7.5,2.470608,22.5,-3.75,22.1875,-2.8125,87.0588235294118,101.176470588235,86,0,31.075,14.07936,183.2,96.8,92.1875,82.8125,79.6875,82.8125,78.4313725490196,
37,2019-06-07,16:22:59.76051,1.42415,,11.9511,0,-8.203125,-8.203125,-6.8359375,3.7,0,82.8125,14.5860465116279,82.8125,27,0,2960.9375,9.12955729166667,14.28621739,15.437904,1.15168661,18.744,4.45778261,7.5,2.725512,22.5,-3.75,22.1875,-2.8125,87.0588235294118,101.176470588235,86,0,31.075,14.07936,183.2,96.8,92.1875,84.375,85.9375,84.375,78.4313725490196,
38,2019-06-07,16:22:59.80724,1.46,,11.9511,0,-8.203125,-8.203125,-6.8359375,3.8,0,84.375,14.5860465116279,84.375,27,0,2984.375,9.45052083333333,14.28621739,15.437904,1.15168661,18.744,4.45778261,7.5,2.725512,22.5,-5,22.1875,-3.90625,86.6666666666667,101.176470588235,86,0,31.075,14.07936,183.2,96.8,98.4375,0,85.9375,85.9375,78.4313725490196,
39,2019-06-07,16:22:59.85424,1.50746,,12.0981,0,-8.203125,-8.203125,-6.8359375,3.9,0,85.9375,14.5860465116279,85.9375,26,0,2984.375,9.69921875,14.28621739,15.5343909,1.24817351,18.86115,4.57493261,7.5,2.686296,22.5,-5,22.1875,-3.90625,86.6666666666667,101.176470588235,86,0,31.075,14.22602,183.2,96.8,98.4375,0,87.5,87.5,78.4313725490196,
40,2019-06-07,16:22:59.88548,1.54017,,12.0981,0,-8.203125,-8.203125,-6.8359375,3.8,0,87.5,14.5860465116279,87.5,26,0,2992.1875,9.47526041666667,14.28621739,15.5343909,1.24817351,18.86115,4.57493261,7.5,2.686296,22.5,-5,22.34375,-4.84375,86.6666666666667,101.176470588235,86,0,31.075,14.22602,183.2,96.8,96.875,31.25,90.625,87.5,78.4313725490196,
41,2019-06-07,16:22:59.93221,1.58358,,12.0981,0,-8.203125,-8.203125,-6.8359375,3.9,0,89.0625,14.4738461538462,89.0625,25,0,3015.625,9.80078125,14.28621739,15.7273647,1.44114731,19.09545,4.80923261,7.5,2.686296,22.5,-5,22.34375,-4.84375,86.6666666666667,101.176470588235,86,0,31.075,14.22602,183.2,96.8,95.3125,75,93.75,89.0625,78.4313725490196,
42,2019-06-07,16:22:59.96346,1.61753,,12.0981,0,-8.203125,-8.203125,-6.8359375,4,0,89.0625,14.4738461538462,90.625,25,0,3039.0625,10.1302083333333,14.28621739,15.7273647,1.44114731,19.09545,4.80923261,7.5,2.686296,23.125,-5.625,22.5,-5.625,86.6666666666667,101.176470588235,86,0,33.561,14.22602,183.2,98.6,95.3125,85.9375,95.3125,90.625,78.4313725490196,
43,2019-06-07,16:22:59.99469,1.65972,,12.0981,0,-8.203125,-8.203125,-6.8359375,4.1,0,92.1875,14.4738461538462,92.1875,24,0,3046.875,10.41015625,14.28621739,15.8238516,1.53763421,19.2126,4.92638261,7.5,2.64708,23.125,-5.625,22.5,-5.625,86.6666666666667,101.176470588235,86,0,33.561,14.22602,183.2,98.6,95.3125,85.9375,93.75,92.1875,78.4313725490196,
44,2019-06-07,16:23:00.02594,1.68806,,12.5391,0,-8.203125,-8.203125,-6.8359375,4.1,0,92.1875,14.363358778626,92.1875,23,0,3046.875,10.41015625,14.28621739,15.8238516,1.53763421,19.2126,4.92638261,7.5,2.64708,23.125,-5,22.8125,-6.40625,86.6666666666667,101.176470588235,86,0,33.561,14.22602,183.2,98.6,96.875,85.9375,98.4375,93.75,78.8235294117647,
45,2019-06-07,16:23:00.07281,1.72808,,12.5391,0,-8.203125,-8.203125,-6.8359375,4.1,0,93.75,14.363358778626,93.75,24,0,3054.6875,10.4368489583333,14.28621739,15.9203385,1.63412111,19.32975,5.04353261,7.5,2.490216,23.125,-5,22.8125,-6.40625,86.6666666666667,101.176470588235,86,0,33.561,14.07936,183.2,98.6,96.875,87.5,101.5625,95.3125,78.4313725490196,
46,2019-06-07,16:23:00.10404,1.76122,,12.5391,0,-8.203125,-8.203125,-6.8359375,4.2,0,95.3125,14.363358778626,95.3125,23,0,3085.9375,10.80078125,14.28621739,15.9203385,1.63412111,19.32975,5.04353261,7.5,2.490216,24.375,-5,23.125,-6.71875,86.6666666666667,101.176470588235,86,0,33.561,14.07936,183.2,98.6,96.875,87.5,93.75,95.3125,78.4313725490196,
47,2019-06-07,16:23:00.13530,1.79114,,12.5391,0,-8.203125,-8.203125,-6.8359375,4.2,0,95.3125,14.363358778626,95.3125,23,0,3101.5625,10.85546875,14.28621739,16.0168254,1.73060801,19.4469,5.16068261,7.5,2.470608,24.375,-5,23.125,-6.71875,86.6666666666667,101.176470588235,86,0,33.561,14.07936,183.2,98.6,101.5625,0,100,96.875,78.8235294117647,
48,2019-06-07,16:23:00.16654,1.83216,,12.5097,0,-8.203125,-8.203125,-6.8359375,4.3,0,98.4375,14.2545454545455,98.4375,21,0,3117.1875,11.169921875,14.28621739,16.0168254,1.73060801,19.4469,5.16068261,7.5,2.470608,25,-5,23.90625,-6.5625,86.6666666666667,101.176470588235,86,0,33.561,14.07936,183.2,98.6,101.5625,32.8125,100,98.4375,78.4313725490196,
49,2019-06-07,16:23:00.21339,1.87102,,12.5097,0,-8.203125,-8.203125,-6.8359375,4.3,0,100,14.2545454545455,100,22,0,3117.1875,11.169921875,14.28621739,16.1133123,1.82709491,19.56405,5.27783261,7.5,2.64708,25,-5,23.90625,-6.5625,86.6666666666667,101.176470588235,86,0,33.561,14.07936,183.2,98.6,98.4375,78.125,103.125,98.4375,78.4313725490196,
50,2019-06-07,16:23:00.24464,1.89721,,12.5097,0,-8.203125,-8.203125,-6.8359375,4.2,0,98.4375,14.2545454545455,100,22,0,3117.1875,10.91015625,14.28621739,16.1133123,1.82709491,19.56405,5.27783261,7.5,2.64708,25.625,-5,24.375,-6.5625,86.6666666666667,101.176470588235,86,0,33.561,14.07936,183.2,98.6,100,89.0625,103.125,100,78.4313725490196,
51,2019-06-07,16:23:00.27589,1.93311,,12.5097,0,-8.203125,-8.203125,-6.8359375,4.2,0,100,14.2545454545455,100,22,0,3140.625,10.9921875,14.28621739,16.402773,2.11655561,19.9155,5.62928261,7.5,2.64708,25.625,-5,24.375,-6.5625,86.6666666666667,101.176470588235,86,0,33.561,14.22602,183.2,98.6,100,90.625,104.6875,100,78.4313725490196,
52,2019-06-07,16:23:00.30713,1.96347,,12.5097,0,-8.203125,-8.203125,-6.8359375,4.2,0,100,14.2545454545455,100,21,0,3179.6875,11.12890625,14.28621739,16.402773,2.11655561,19.9155,5.62928261,7.5,2.64708,26.875,-6.875,24.84375,-6.875,86.6666666666667,101.176470588235,86,0,33.561,14.22602,183.2,98.6,100,90.625,110.9375,100,78.4313725490196,
53,2019-06-07,16:23:00.33837,1.99949,,12.5244,0,-8.203125,-8.203125,-6.8359375,4.1,0,100,14.2545454545455,100,21,0,3179.6875,10.8639322916667,14.28621739,16.4992599,2.21304251,20.03265,5.74643261,7.5,2.431392,26.875,-6.875,24.84375,-6.875,86.6666666666667,101.176470588235,86,0,33.561,14.22602,183.2,98.6,101.5625,90.625,110.9375,101.5625,78.8235294117647,
54,2019-06-07,16:23:00.38532,2.03815,,12.5244,0,-8.203125,-8.203125,-6.8359375,4.1,0,101.5625,14.1473684210526,101.5625,20,0,3171.875,10.8372395833333,14.28621739,16.4992599,2.21304251,20.03265,5.74643261,7.5,2.431392,26.875,-7.5,26.09375,-7.34375,86.6666666666667,101.176470588235,86,0,33.561,14.15269,183.2,98.6,103.125,92.1875,107.8125,103.125,78.4313725490196,
55,2019-06-07,16:23:00.41654,2.07913,,12.5244,0,-8.203125,-8.203125,-6.8359375,4,0,103.125,14.1473684210526,103.125,20,0,3179.6875,10.5989583333333,14.28621739,16.7887206,2.50250321,20.3841,6.09788261,7.5,2.784336,26.875,-7.5,26.09375,-7.34375,86.6666666666667,101.176470588235,86,0,33.561,14.15269,183.2,98.6,103.125,93.75,110.9375,103.125,78.4313725490196,
56,2019-06-07,16:23:00.44771,2.10715,,12.5244,0,-8.203125,-8.203125,-6.8359375,3.9,0,103.125,14.1473684210526,103.125,20,0,3203.125,10.41015625,14.28621739,16.7887206,2.50250321,20.3841,6.09788261,7.5,2.784336,28.125,-8.75,26.71875,-8.125,86.6666666666667,101.176470588235,86,0,33.561,14.15269,183.2,98.6,103.125,93.75,114.0625,103.125,78.4313725490196,
57,2019-06-07,16:23:00.47899,2.14067,,12.5244,0,-8.203125,-8.203125,-6.8359375,3.9,0,103.125,14.1473684210526,104.6875,20,0,3210.9375,10.435546875,14.28621739,16.8852075,2.59899011,20.50125,6.21503261,7.5,2.64708,28.125,-8.75,26.71875,-8.125,86.6666666666667,101.176470588235,86,0,33.561,14.29935,183.2,98.6,104.6875,93.75,118.75,104.6875,78.8235294117647,
58,2019-06-07,16:23:00.52598,2.17752,,13.0095,0,-8.203125,-8.203125,-6.8359375,3.9,0,104.6875,14.0417910447761,104.6875,20,0,3195.3125,10.384765625,14.28621739,16.8852075,2.59899011,20.50125,6.21503261,7.5,2.64708,28.125,-9.375,27.34375,-8.90625,86.6666666666667,101.176470588235,86,0,33.561,14.29935,183.2,98.6,106.25,95.3125,115.625,106.25,78.4313725490196,
59,2019-06-07,16:23:00.55707,2.217,,13.0095,0,-8.203125,-8.203125,-6.8359375,3.9,0,106.25,14.0417910447761,106.25,20,0,3242.1875,10.537109375,14.28621739,17.1746682,2.88845081,20.8527,6.56648261,7.5,2.882376,28.125,-9.375,27.34375,-8.90625,86.6666666666667,101.176470588235,86,0,33.561,14.29935,183.2,98.6,106.25,96.875,121.875,106.25,78.4313725490196,
60,2019-06-07,16:23:00.58832,2.24713,,13.0095,0,-8.203125,-8.203125,-6.8359375,3.9,0,106.25,14.0417910447761,107.8125,19,0,3257.8125,10.587890625,14.28621739,17.1746682,2.88845081,20.8527,6.56648261,7.5,2.882376,28.75,-10.625,27.5,-9.84375,86.6666666666667,101.176470588235,86,0,33.561,14.22602,183.2,98.6,107.8125,96.875,126.5625,107.8125,78.8235294117647,
61,2019-06-07,16:23:00.61955,2.28409,,13.0095,0,-8.203125,-8.203125,-6.8359375,3.9,0,107.8125,13.9377777777778,107.8125,19,0,3250,10.5625,14.28621739,17.367642,3.08142461,21.087,6.80078261,7.5,2.588256,28.75,-10.625,27.5,-9.84375,86.6666666666667,101.176470588235,86,0,33.561,14.22602,183.2,98.6,109.375,98.4375,110.9375,107.8125,78.8235294117647,
62,2019-06-07,16:23:00.66657,2.3205,,14.2296,0,-8.203125,-8.203125,-6.8359375,4,0,107.8125,13.9377777777778,109.375,19,0,3273.4375,10.9114583333333,14.28621739,17.367642,3.08142461,21.087,6.80078261,7.5,2.588256,29.375,-10.625,28.4375,-10.625,86.6666666666667,101.176470588235,86,0,33.561,14.22602,183.2,98.6,109.375,98.4375,128.125,109.375,78.4313725490196,
63,2019-06-07,16:23:00.69765,2.35679,,14.2296,0,-8.203125,-8.203125,-6.8359375,4,0,109.375,13.9377777777778,109.375,19,0,3335.9375,11.1197916666667,14.28621739,17.6571027,3.37088531,21.43845,7.15223261,7.5,2.666688,29.375,-10.625,28.4375,-10.625,86.6666666666667,101.176470588235,86,0,36.047,14.15269,183.2,96.8,110.9375,100,126.5625,110.9375,78.4313725490196,
64,2019-06-07,16:23:00.74452,2.39681,,14.2296,0,-8.203125,-8.203125,-6.8359375,4.1,0,110.9375,13.8352941176471,112.5,18,0,3234.375,11.05078125,14.28621739,17.6571027,3.37088531,21.43845,7.15223261,7.5,2.666688,28.75,-10,29.0625,-10.78125,86.6666666666667,101.176470588235,86,0,36.047,14.15269,183.2,96.8,112.5,101.5625,125,112.5,78.4313725490196,
65,2019-06-07,16:23:00.77577,2.43869,,14.2296,0,-8.203125,-8.203125,-6.8359375,4.2,0,114.0625,13.8352941176471,114.0625,18,0,3281.25,11.484375,14.28621739,17.9465634,3.66034601,21.7899,7.50368261,7.5,2.921592,28.75,-10,29.0625,-10.78125,86.6666666666667,101.176470588235,86,0,36.047,14.15269,183.2,96.8,114.0625,103.125,132.8125,114.0625,78.4313725490196,
66,2019-06-07,16:23:00.82277,2.47342,,15.141,0,-8.203125,-8.203125,-6.8359375,4.2,0,114.0625,13.7343065693431,114.0625,18,0,3335.9375,11.67578125,14.28621739,17.9465634,3.66034601,21.7899,7.50368261,7.5,2.921592,29.375,-10.625,29.0625,-11.5625,86.6666666666667,101.176470588235,86,0,36.047,14.15269,183.2,96.8,115.625,104.6875,128.125,115.625,78.4313725490196,
67,2019-06-07,16:23:00.85387,2.51224,,15.141,0,-8.203125,-8.203125,-6.8359375,4.3,0,115.625,13.7343065693431,117.1875,18,0,3320.3125,11.8977864583333,14.28621739,18.2360241,3.94980671,22.14135,7.85513261,7.5,2.901984,29.375,-10.625,29.0625,-11.5625,86.6666666666667,101.176470588235,86,0,36.047,14.15269,183.2,96.8,117.1875,106.25,139.0625,117.1875,78.4313725490196,
68,2019-06-07,16:23:00.88514,2.54778,,15.141,0,-8.203125,-8.203125,-6.8359375,4.4,0,117.1875,13.7343065693431,117.1875,17,0,3281.25,12.03125,14.28621739,18.2360241,3.94980671,22.14135,7.85513261,7.5,2.901984,29.375,-10,29.375,-11.5625,86.6666666666667,101.176470588235,86,0,36.047,14.15269,183.2,96.8,118.75,107.8125,140.625,118.75,78.4313725490196,